Location: Casper
(42.8670°N, 106.3130°W)
Time: 02:53:26
(UTC-06:00)

Daily predictions for brighter satellites

Satellite Brightness Start Highest point End
(mag) Time Altitude Azimuth Time Altitude Azimuth Time Altitude Azimuth
Cosmos 1943 Rocket 3.3 00:14:11 10° NNW 00:17:39 38° NW 00:17:39 38° NW
H-2A R/B 4.2 00:22:29 25° N 00:22:29 25° N 00:24:29 10° N
Cosmos 2061 Rocket 4.4 00:35:12 60° N 00:35:12 60° N 00:40:23 10° N
Cosmos 2100 Rocket 4.5 00:35:31 57° NNW 00:35:31 57° NNW 00:40:47 10° N
USA 267 4.4 00:36:49 10° NE 00:42:46 39° NNW 00:48:44 10° W
Cosmos 2369 Rocket 4.2 00:46:39 10° NW 00:48:53 19° WNW 00:48:53 19° WNW
ADEOS Rocket 3.5 01:03:12 10° NNE 01:08:56 63° NNE 01:08:56 63° NNE
Mayak 1.4 01:08:57 10° N 01:10:12 18° NNW 01:10:12 18° NNW
ATLAS 5 CENTAUR R/B 4.4 01:15:32 10° WNW 01:17:13 17° WNW 01:17:13 17° WNW
Lacrosse 4 Rocket 4.0 01:38:31 10° N 01:41:23 18° NE 01:41:23 18° NE
Gbstr 26 Del rocket 4.3 01:59:09 82° NE 01:59:09 82° NE 02:06:05 10° ENE
Lacrosse 5 rocket 4.1 02:11:25 14° ENE 02:11:25 14° ENE 02:12:05 10° ENE
Cosmos 2034 Rocket 4.3 02:10:41 62° ENE 02:10:41 62° ENE 02:16:14 10° NNE
Cosmos 1867 4.5 02:08:42 10° NNW 02:13:49 45° NE 02:13:49 45° NE
Meteor 2-4 Rocket 4.3 02:21:42 52° NNE 02:21:42 52° NNE 02:25:44 10° NNE
CZ-2D R/B 3.5 02:24:05 10° NE 02:28:39 31° E 02:28:39 31° E
COSMOS 2406 4.4 02:32:46 33° NW 02:32:46 33° NW 02:37:27 10° N
Cosmos 2278 4.1 02:28:13 10° NNW 02:32:43 57° N 02:32:43 57° N
Cosmos 1980 Rocket 3.5 02:31:49 10° N 02:37:00 36° ENE 02:39:51 22° ESE
Cosmos 1464 Rocket 4.3 02:38:21 54° NW 02:38:21 54° NW 02:43:50 10° N
SL-16 R/B 3.0 02:36:53 46° ESE 02:38:17 56° ENE 02:44:24 10° N
Cosmos 1697 Rocket 3.0 02:33:55 10° NNW 02:39:27 63° NE 02:39:27 63° NE
Exosat Rocket 4.3 02:33:58 10° NNW 02:39:56 76° ENE 02:41:47 53° SE
Cosmos 2082 Rocket 2.3 02:48:31 68° ENE 02:48:31 68° ENE 02:53:36 10° NNE
H-2A R/B 3.9 02:44:43 10° NNE 02:47:33 38° NE 02:47:33 38° NE
Nadezhda 4 Rocket 4.0 02:52:57 10° NNW 02:58:33 64° WNW 02:58:33 64° WNW
Resurs 1-4 Rocket 2.2 02:59:24 10° NNE 03:04:38 65° E 03:04:38 65° E
ATLAS 3B R/B 4.3 03:03:31 19° SE 03:06:12 24° ESE 03:11:33 10° ENE
Cosmos 1634 Rocket 3.9 03:09:33 66° SSE 03:10:27 78° E 03:16:43 10° N
Meteor 1-15 Rocket 4.4 03:08:35 10° NNW 03:14:07 63° WNW 03:14:07 63° WNW
IRS-P3 4.0 03:09:44 10° N 03:14:58 77° WNW 03:14:58 77° WNW
SL-08 R/B 3.7 03:16:47 55° NW 03:16:47 55° NW 03:20:40 10° NNW
NPP 3.6 03:10:49 10° N 03:16:04 70° WNW 03:16:04 70° WNW
COSMOS 2487 4.3 03:18:57 30° NE 03:18:57 30° NE 03:20:56 10° NNE
Cosmos 1025 Rocket 3.6 03:19:50 52° N 03:19:50 52° N 03:23:07 10° N
Lacrosse 4 Rocket 3.6 03:16:18 10° NW 03:17:39 19° NW 03:17:39 19° NW
CBERS-1 4.1 03:16:01 10° N 03:20:52 67° NW 03:20:52 67° NW
UNK 4.4 03:22:28 47° NW 03:22:28 47° NW 03:25:50 10° NNW
Cosmos 1833 Rocket 2.9 03:23:18 53° WNW 03:23:30 53° WNW 03:29:02 10° NNE
Cosmos 2279 Rocket 4.4 03:21:32 39° SSE 03:23:43 60° E 03:29:52 10° NNE
Cosmos 2208 Rocket 3.9 03:27:00 73° SSE 03:27:25 78° ESE 03:32:41 10° NNE
Cosmos 1898 Rocket 3.8 03:24:57 10° NNW 03:30:09 66° ENE 03:32:39 31° SE
Cosmos 2026 Rocket 3.9 03:25:42 10° N 03:32:06 85° W 03:34:02 48° S
AQUA 4.2 03:32:32 10° N 03:36:54 50° WNW 03:36:54 50° WNW
Iridium 4 Rocket 3.8 03:40:35 41° NW 03:40:35 41° NW 03:44:03 10° N
Cosmos 1766 3.9 03:36:06 10° N 03:39:53 50° ENE 03:40:20 47° ESE
Cosmos 1937 Rocket 4.0 03:35:13 10° NNW 03:40:22 58° ENE 03:45:26 10° SSE
Cosmos 1570 Rocket 3.9 03:40:35 65° WSW 03:41:07 71° WNW 03:46:27 10° NNE
Cosmos 1356 Rocket 3.4 03:47:07 70° NNW 03:47:07 70° NNW 03:50:50 10° N
Lacrosse 5 rocket 2.5 03:47:04 34° NW 03:47:22 34° NW 03:51:10 10° NNE
Cosmos 2360 4.1 03:42:00 10° NNW 03:47:39 66° WSW 03:49:03 49° SSW
Cosmos 724 4.3 03:48:14 47° S 03:49:53 71° ESE 03:55:40 10° NE
ARIANE 5 R/B 2.5 03:47:38 10° N 03:52:53 75° WNW 03:54:03 54° SW
Cosmos 468 Rocket 3.9 03:52:17 56° SSW 03:53:27 82° WNW 03:58:48 10° NNE
Spot 4 Rocket 4.0 03:48:41 10° N 03:53:50 71° WNW 03:54:53 54° SW
Timation 2 Rocket 4.2 03:52:40 32° S 03:55:21 58° ESE 04:01:12 10° NNE
Cosmos 990 Rocket 4.0 03:50:19 10° NNW 03:55:30 79° ENE 04:00:30 11° SSE
Cosmos 1066 Rocket 4.3 04:00:23 46° WSW 04:01:26 52° WNW 04:06:45 10° N
Cosmos 1814 Rocket 4.0 04:01:04 39° S 04:02:57 73° ESE 04:08:07 10° NNE
Helios 1A Rocket 2.8 03:58:56 10° N 04:03:06 78° WNW 04:03:39 65° SW
Cosmos 44 Rocket 4.3 03:58:10 10° NNW 04:03:09 50° NE 04:08:12 10° SE
CZ-2D R/B 3.4 04:00:35 10° NNE 04:04:41 83° ESE 04:05:36 53° S
Cosmos 2266 Rocket 4.4 04:01:21 10° N 04:07:23 62° E 04:13:28 10° SSE
USA 238 DEB 3.9 04:05:07 30° SSW 04:08:40 68° ESE 04:15:35 10° NE
USA 238 3.9 04:05:12 30° SSW 04:08:46 68° ESE 04:15:41 10° NE
CZ-2D R/B 2.9 04:04:02 10° N 04:08:54 36° WNW 04:09:59 33° W
Cosmos 1655 Rocket 4.0 04:02:39 10° NNW 04:08:59 67° W 04:12:48 25° S
Cosmos 2150 Rocket 4.2 04:03:57 10° NNW 04:09:27 77° ENE 04:14:54 10° SSE
Cosmos 1726 Rocket 3.5 04:07:48 10° NNW 04:12:03 56° W 04:12:35 52° SW
Cosmos 2298 Rocket 3.9 04:11:20 10° NNW 04:16:41 83° WSW 04:21:59 10° SSE
Cosmos 2360 Rocket 3.9 04:13:22 10° N 04:18:28 34° NE 04:23:32 10° ESE
BREEZE-M R/B 2.6 04:18:18 58° SW 04:18:56 79° SSE 04:24:24 10° ENE
Meteor 1-21 4.2 04:15:47 26° S 04:19:06 89° WNW 04:24:45 10° N
IRS-1D 4.4 04:14:36 10° N 04:19:12 34° WNW 04:20:30 30° W
Cosmos 1980 Rocket 2.7 04:15:55 10° NW 04:20:56 34° WSW 04:21:31 33° WSW
SL-16 R/B 3.6 04:21:58 25° W 04:22:13 25° W 04:27:16 10° NW
Cosmos 1697 Rocket 4.4 04:19:07 10° WNW 04:21:08 16° WNW 04:21:08 16° WNW
UNKNOWN OBJECT B 3.0 04:24:43 10° N 04:28:28 49° WNW 04:29:16 41° WSW
ADEOS II 2.1 04:24:04 10° NNE 04:29:22 84° ESE 04:33:18 18° SSW
BREEZE-M DEB (TANK) 3.6 04:13:57 10° WNW 04:29:42 77° SW 04:33:38 10° SE
Cosmos 841 Rocket 3.4 04:28:29 27° SSW 04:31:24 86° WNW 04:36:38 10° NNE
ADEOS 3.7 04:26:17 10° N 04:31:24 58° WNW 04:34:05 28° SW
Cosmos 2082 Rocket 3.9 04:30:21 15° WNW 04:32:40 19° NW 04:36:41 10° N
Cosmos 2058 Rocket 3.3 04:29:16 10° NNW 04:33:32 48° W 04:35:26 29° SSW
SL-16 R/B 2.1 04:28:38 10° NNW 04:34:20 80° WSW 04:39:59 10° SSE
Cosmos 1602 Rocket 3.8 04:30:58 15° S 04:34:32 65° E 04:38:50 10° NNE
Cosmos 1470 3.7 04:31:11 10° N 04:35:04 49° E 04:38:55 10° SSE
Cosmos 2228 3.5 04:33:02 10° NNW 04:37:01 39° W 04:38:16 31° SW
Resurs 1-4 Rocket 3.7 04:40:29 10° NNW 04:43:57 18° WNW 04:45:43 15° W
NOSS 3-2 (C) 4.1 04:40:41 12° S 04:45:54 51° ESE 04:52:08 10° NE
Cosmos 1626 Rocket 3.4 04:43:42 17° SSW 04:46:58 81° W 04:51:19 10° N
Cosmos 540 Rocket 3.6 04:42:44 14° SSW 04:47:05 76° ESE 04:52:15 10° NNE
Cosmos 2322 Rocket 2.1 04:44:10 10° NNW 04:49:45 64° WSW 04:55:17 10° S
SJ 16-02 1.6 04:48:10 10° NNW 04:52:35 73° ENE 04:56:59 10° SSE
Cosmos 1378 3.2 04:49:19 12° S 04:52:48 78° E 04:56:35 10° N
Cosmos 1707 3.4 04:49:12 10° S 04:52:59 56° E 04:56:48 10° NNE
Cosmos 1842 4.2 04:52:06 24° WSW 04:53:29 31° WNW 04:57:03 10° NNW
Cosmos 292 Rocket 3.8 04:52:10 19° SSW 04:55:34 65° WNW 05:00:22 10° NNE
ATLAS 3B R/B 2.8 04:50:47 18° SW 04:56:18 74° NW 05:03:15 10° NNE
ATLAS CENTAUR R/B 2.8 04:53:24 10° NNW 04:57:37 45° NE 05:02:05 10° SE
Cosmos 1763 Rocket 4.3 04:54:44 20° WSW 04:57:46 37° WNW 05:02:43 10° N
NOSS 3-2 (A) 3.4 04:57:37 15° SSW 05:02:36 89° SE 05:09:12 10° NE
Cosmos 1953 2.5 05:05:58 10° NNW 05:09:55 51° W 05:13:51 10° S
PSLV R/B 4.0 05:07:03 10° NNE 05:10:55 71° ESE 05:14:40 10° S
USA 215 3.3 05:07:23 10° NE 05:13:58 88° NW 05:20:18 11° SW
Cosmos 44 4.2 05:10:34 10° NW 05:15:10 31° WSW 05:19:51 10° S
CZ-4B R/B 4.4 05:10:00 10° NNE 05:15:19 45° E 05:20:31 10° S
CENTAUR R/B 3.8 05:11:37 10° S 05:16:59 37° ESE 05:23:01 10° NE
Aureole 2 Rocket 2.5 05:16:57 10° NNW 05:20:45 67° WSW 05:24:16 10° S
PSLV R/B 4.2 05:21:51 13° SW 05:24:07 30° SSE 05:26:48 10° E
Cosmos 1553 Rocket 4.4 05:18:14 10° S 05:24:36 72° E 05:31:00 10° NNE
Cosmos 1125 Rocket 3.5 05:19:45 10° NNW 05:25:02 66° WSW 05:30:16 10° S
Meteor 1-28 Rocket 3.6 05:21:50 10° SSE 05:25:31 69° ENE 05:29:17 10° N
Meteor PRIRODA 4.4 05:23:55 10° NNE 05:27:33 55° E 05:31:12 10° S
Lacrosse 5 rocket 3.8 05:25:42 10° NW 05:27:36 13° NNW 05:29:27 10° NNE
Cosmos 2292 Rocket 3.6 05:26:24 10° N 05:30:04 58° E 05:33:07 10° SSE
Cosmos 2237 4.3 05:25:33 10° NNW 05:31:19 87° ENE 05:37:02 10° SSE
Cosmos-2242 4.2 05:27:41 10° N 05:31:51 47° ENE 05:35:57 10° SSE
ERBS 2.7 05:28:57 10° SSW 05:32:15 59° SE 05:35:37 10° NE
Cosmos 2322 3.8 05:26:34 10° NNW 05:32:19 88° WSW 05:38:03 10° SSE
Okean O Rocket 1.8 05:28:57 10° NNE 05:33:19 76° ESE 05:37:39 10° S
CZ-4B DEB 4.4 05:31:16 10° NNE 05:36:51 82° ESE 05:42:23 10° SSW
Cosmos 1825 Rocket 3.5 05:32:43 10° SSW 05:37:01 74° W 05:41:22 10° N
CRYOSAT 2 4.4 05:38:35 10° S 05:43:21 58° W 05:48:10 10° NNW
Cosmos 44 Rocket 4.4 05:40:18 10° WNW 05:44:26 25° WSW 05:48:35 10° SSW
USA 267 3.7 05:42:19 10° ESE 05:48:48 68° NE 05:55:18 10° NW
